Regional Weather Roundup
Issued by NWS Binghamton, NY

Current Version |  Previous Version |  Text Only |  Print | Product List |  Glossary On
Versions: 1 2 3 4 5 6 7 8 9 10 11 12 13 14 15 16 17 18 19 20 21 22 23 24 25 26 27 28
715
ASUS41 KBGM 210810
RWRBGM

REGIONAL WEATHER ROUNDUP
NATIONAL WEATHER SERVICE BINGHAMTON NY
400 AM EDT SUN JUL 21 2024

Note: "fair" indicates few or no clouds below 12,000 feet with no
significant weather and/or obstructions to visibility.

* = Station(s) that does not report precipitation, such as rain,
snow, etc, also no thunder or fog.

NYZ009-015>018-022>025-036-037-044>046-055>057-062-210900
...Central New York...

CITY           SKY/WX    TMP DP  RH WIND       PRES   REMARKS
Binghamton     PTCLDY    66  54  65 CALM      30.07S
Cortland       PTCLDY    54  52  94 CALM      30.08S
Dansville      PTCLDY    58  51  78 SE8       30.09S
Elmira         PTCLDY    59  56  89 CALM      30.06S
Endicott         N/A     59  59 100 CALM      30.06
Ithaca         PTCLDY    56  55  97 E3        30.08S
Hamilton       CLEAR     54  54 100 CALM      30.06F
Monticello     NOT AVBL
Norwich        CLEAR     54  54 100 CALM      30.10S
Oneonta        MOSUNNY   55  55 100 CALM      30.08S
Penn Yan       PTCLDY    61  57  87 SW6       30.06F
Rome           PTCLDY    57  54  89 CALM      30.05S
Seneca Falls   SUNNY     61  59  94 CALM      30.05S
Skaneateles    PTCLDY    59  59 100 CALM      30.05F
Syracuse       PTCLDY    64  58  80 CALM      30.04S
$$

PAZ038>040-043-044-047-048-072-210900
...Northeast Pennsylvania...

CITY           SKY/WX    TMP DP  RH WIND       PRES   REMARKS
Hazleton       MOCLDY    63  63 100 CALM      30.10F
Scranton       PTCLDY    70  64  81 CALM      30.04F
$$
&&
KEY
WCI = Wind Chill Index
VSB = Visibility
HX  = Heat Index
$$